Location: Kellogg
(38.0159°N, 90.0546°W)
Time: 19:42:07
(UTC+00:00)

S-56A Canister/Altair - Pass Details

Date: 15 September 2024
Orbit: 636 x 2487 km, 38.9° (Epoch: 04 October)

Event Time Altitude Azimuth Distance (km) Brightness Sun altitude
Rises 05:58:18 0° 286° (WNW) 4,381 11.5 -49.2°
Enters shadow 05:59:21 - 284° (WNW) 4,079 11.3 -49.2°
Reaches altitude 10° 06:00:58 10° 281° (W) 3,629 - -49.1°
Maximum altitude 06:10:19 52° 209° (SSW) 2,302 - -49.0°
Drops below altitude 10° 06:23:24 10° 139° (SE) 4,973 - -48.7°
Sets 06:27:44 0° 135° (SE) 6,092 - -48.5°
